Rocky Mount, NC

1:17 AM EDT on September 22, 2017 (GMT -0400)
Rocky Mount-Wilson Regional

Weather History for KRWI - July, 2013

Change the Weather History Date:

Thursday, July 11, 2013

  Actual Average Record
Temperature  
Mean Temperature 80 °F -  
Max Temperature 87 °F 90 °F 104 °F (1989)
Min Temperature 72 °F 70 °F 51 °F (1963)
Cooling Degree Days 15    
Growing Degree Days 30 (Base 50)    
Moisture  
Dew Point 72 °F    
Average Humidity 85    
Maximum Humidity 100    
Minimum Humidity 61    
Precipitation  
Precipitation 0.61 in - - ()
Sea Level Pressure  
Sea Level Pressure 29.94 in    
Wind  
Wind Speed 6 mph (SSW)    
Max Wind Speed 15 mph    
Max Gust Speed 20 mph    
Visibility 8 miles    
Events Rain , Thunderstorm    
Averages and records for this station are not official NWS values.
T = Trace of Precipitation, MM = Missing Value Source: NWS Daily Summary

Daily Weather History Graph

Daily Weather History Graph

Search for Another Location

Airport or City:

Trip Planner

Search our weather history database for the weather conditions in past years. The results will help you decide how hot, cold, wet, or windy it might be!

Date:

Astronomy

Jul. 11, 2013 Rise Set
Actual Time 6:04 AM EDT 8:29 PM EDT
Civil Twilight 5:34 AM EDT 8:59 PM EDT
Nautical Twilight 4:58 AM EDT 9:35 PM EDT
Astronomical Twilight 4:18 AM EDT 10:15 PM EDT
Moon 9:13 AM EDT (7/11) 10:17 PM EDT (7/11)
Length of Visible Light 15h 24m
Length of Day
14h 25m
Waxing Crescent, 10% of the Moon is Illuminated
Jul 11
Waxing Crescent
Jul 15
First Quarter
Jul 22
Full
Jul 29
Last Quarter
Aug 6
New

Hourly Weather History & Observations

Time (EDT) Temp. Heat Index Dew Point Humidity Pressure Visibility Wind Dir Wind Speed Gust Speed Precip Events Conditions
12:53 AM 75.9 °F - 70.0 °F 82% 29.99 in 10.0 mi South 4.6 mph - N/A   Clear
1:53 AM 75.9 °F - 71.1 °F 85% 29.98 in 10.0 mi South 4.6 mph - N/A   Mostly Cloudy
2:53 AM 73.9 °F - 71.1 °F 91% 29.96 in 10.0 mi South 5.8 mph - N/A   Partly Cloudy
3:53 AM 73.9 °F - 71.1 °F 91% 29.95 in 10.0 mi South 4.6 mph - N/A   Partly Cloudy
4:53 AM 75.0 °F - 72.0 °F 90% 29.95 in 10.0 mi South 6.9 mph - N/A   Overcast
5:53 AM 75.0 °F - 71.1 °F 87% 29.96 in 10.0 mi SSW 8.1 mph - N/A   Overcast
6:53 AM 75.9 °F - 72.0 °F 87% 29.97 in 10.0 mi SW 5.8 mph - N/A   Overcast
7:53 AM 78.1 °F - 72.0 °F 81% 29.97 in 10.0 mi SW 6.9 mph - N/A   Clear
8:53 AM 80.1 °F 83.8 °F 72.0 °F 76% 29.97 in 10.0 mi SW 11.5 mph - N/A   Scattered Clouds
9:06 AM 80.6 °F 84.6 °F 71.6 °F 74% 29.98 in 10.0 mi SW 9.2 mph - N/A   Mostly Cloudy
9:53 AM 81.0 °F 85.8 °F 73.0 °F 77% 29.97 in 10.0 mi SW 6.9 mph - N/A   Mostly Cloudy
10:49 AM 84.2 °F 90.9 °F 73.4 °F 70% 29.97 in 10.0 mi SSW 11.5 mph - N/A   Overcast
10:53 AM 82.9 °F 88.8 °F 73.0 °F 72% 29.97 in 10.0 mi SSW 10.4 mph - N/A   Overcast
11:53 AM 82.9 °F 88.8 °F 73.0 °F 72% 29.97 in 10.0 mi SSW 8.1 mph - N/A   Mostly Cloudy
12:53 PM 87.1 °F 93.6 °F 72.0 °F 61% 29.95 in 10.0 mi SW 8.1 mph - N/A   Scattered Clouds
1:53 PM 82.0 °F 86.7 °F 72.0 °F 71% 29.93 in 10.0 mi WNW 8.1 mph - 0.00 in Thunderstorm Overcast
2:13 PM 80.6 °F 84.6 °F 71.6 °F 74% 29.94 in 10.0 mi West 15.0 mph 19.6 mph N/A   Overcast
2:44 PM 75.2 °F - 71.6 °F 89% 29.94 in 1.5 mi SW 8.1 mph - 0.13 in Rain Heavy Rain
2:53 PM 73.9 °F - 71.1 °F 91% 29.93 in 1.0 mi SSE 4.6 mph - 0.24 in Rain , Thunderstorm Rain
2:57 PM 73.4 °F - 71.6 °F 94% 29.93 in 3.0 mi Calm Calm - 0.00 in Rain , Thunderstorm Light Rain
3:11 PM 75.2 °F - 71.6 °F 89% 29.93 in 5.0 mi SE 4.6 mph - 0.02 in Rain Light Rain
3:19 PM 77.0 °F - 73.4 °F 89% 29.93 in 10.0 mi Calm Calm - 0.02 in Thunderstorm Thunderstorm
3:29 PM 80.6 °F 85.4 °F 73.4 °F 79% 29.92 in 10.0 mi Calm Calm - 0.02 in Thunderstorm Scattered Clouds
3:53 PM 82.9 °F 89.4 °F 73.9 °F 74% 29.91 in 10.0 mi NNW 4.6 mph - 0.02 in Thunderstorm Clear
4:12 PM 80.6 °F 85.4 °F 73.4 °F 79% 29.91 in 10.0 mi North 8.1 mph - N/A   Mostly Cloudy
4:32 PM 75.2 °F - 69.8 °F 83% 29.93 in 2.5 mi NNE 4.6 mph - 0.09 in Rain , Thunderstorm Thunderstorms and Rain
4:40 PM 73.4 °F - 71.6 °F 94% 29.93 in 1.5 mi ENE 3.5 mph - 0.14 in Rain , Thunderstorm Heavy Thunderstorms and Rain
4:43 PM 75.2 °F - 71.6 °F 89% 29.93 in 2.5 mi NE 4.6 mph - 0.14 in Rain , Thunderstorm Light Thunderstorms and Rain
4:50 PM 75.2 °F - 71.6 °F 89% 29.93 in 9.0 mi ENE 3.5 mph - 0.14 in Rain , Thunderstorm Light Thunderstorms and Rain
4:53 PM 75.0 °F - 72.0 °F 90% 29.93 in 10.0 mi East 4.6 mph - 0.14 in Rain , Thunderstorm Light Thunderstorms and Rain
5:26 PM 75.2 °F - 71.6 °F 89% 29.93 in 10.0 mi Calm Calm - 0.00 in   Mostly Cloudy
5:53 PM 75.0 °F - 71.1 °F 87% 29.91 in 8.0 mi NW 3.5 mph - 0.01 in Rain Light Rain
6:53 PM 73.9 °F - 71.1 °F 91% 29.92 in 5.0 mi Calm Calm - 0.11 in Rain Light Rain
7:53 PM 73.9 °F - 72.0 °F 93% 29.93 in 10.0 mi ESE 5.8 mph - 0.03 in Rain Light Rain
8:09 PM 73.4 °F - 73.4 °F 100% 29.92 in 9.0 mi Calm Calm - 0.00 in   Mostly Cloudy
8:18 PM 73.4 °F - 73.4 °F 100% 29.92 in 7.0 mi Variable 4.6 mph - 0.00 in   Mostly Cloudy
8:34 PM 73.4 °F - 71.6 °F 94% 29.92 in 10.0 mi Calm Calm - 0.00 in   Overcast
8:53 PM 73.9 °F - 72.0 °F 93% 29.92 in 10.0 mi ENE 3.5 mph - 0.00 in   Mostly Cloudy
9:53 PM 73.0 °F - 72.0 °F 96% 29.92 in 10.0 mi Calm Calm - 0.00 in   Scattered Clouds
10:53 PM 73.0 °F - 71.1 °F 93% 29.92 in 10.0 mi Calm Calm - 0.01 in Rain Light Rain
11:53 PM 72.0 °F - 71.1 °F 97% 29.92 in 5.0 mi SE 4.6 mph - 0.05 in Rain Light Rain